Regional Weather Roundup
Issued by NWS

Home | Current Version | Previous Version | Graphics & Text | Print | Product List | Glossary On
Versions: 1 2 3 4 5 6 7 8 9 10 11 12 13 14 15 16 17 18 19 20 21 22 23 24 25 26 27
000
ASUS45 KBOU 260507
RWRCO

WEATHER ROUNDUP FOR COLORADO
NATIONAL WEATHER SERVICE DENVER/BOULDER CO
1100 PM MDT SAT OCT 25 2014

NOTE: "FAIR" INDICATES FEW OR NO CLOUDS BELOW 12000 FEET WITH NO
SIGNIFICANT WEATHER AND/OR OBSTRUCTIONS TO VISIBILITY.

COZ001>005-013-030-031-260600-
...NORTHWEST COLORADO...

CITY           SKY/WX    TMP DP  RH WIND       PRES   REMARKS
CRAIG          CLEAR     40  30  67 SE5       30.09F
HAYDEN         NOT AVBL
MEEKER         CLEAR     45  33  63 CALM      30.11F
MOUNT WERNER   NOT AVBL
STEAMBOAT SPGS CLEAR     44  26  48 CALM      30.13S
WALDEN         PTCLDY    34  21  60 SE8       30.16F WCI  27
$$

COZ006>008-011-260600-
...WEST CENTRAL VALLEYS...

CITY           SKY/WX    TMP DP  RH WIND       PRES   REMARKS
GRAND JUNCTION CLOUDY    59  33  37 SE6       30.05F
MONTROSE       PTCLDY    53  35  50 S3        30.17S
EAGLE          CLEAR     46  30  53 E5        30.18S
RIFLE          CLEAR     51  33  50 CALM      30.09F
DELTA          MOCLDY    62  33  33 NE7       30.12S
NUCLA          MOCLDY    55  32  41 E12       30.19F
$$

COZ017>023-064>068-260600-
...SOUTHWEST COLORADO...

CITY           SKY/WX    TMP DP  RH WIND       PRES   REMARKS
DURANGO        PTCLDY    48  35  60 CALM      30.24F
CORTEZ         MOCLDY    47  36  65 CALM      30.19S
PAGOSA SPRINGS PTCLDY    47  29  49 CALM      30.31S
TELLURIDE      PTCLDY    52  31  44 CALM      30.36F
WOLF CREEK PAS MOCLDY    37  28  70 SW22G33     N/A
$$

COZ009-010-012-014-032>034-037-058>063-260600-
...CENTRAL COLORADO...

CITY           SKY/WX    TMP DP  RH WIND       PRES   REMARKS
ASPEN          CLEAR     43  28  55 SW8       30.24R
BUENA VISTA    CLEAR     42  20  40 NW3       30.23F
COPPER MTN     NOT AVBL
BERTHOUD PASS  FAIR      36  34  93 W14G20    30.46F
COTTONWOOD PAS CLEAR     54  21  28 W13G21    30.33F
GUNNISON       CLEAR     39  27  60 CALM      30.30R
KREMMLING      CLEAR     36  27  69 W3          N/A
LEADVILLE      CLEAR     34  18  52 N5        30.32F WCI  30
MONARCH PASS   CLEAR     37  25  60 SW26G32   30.56F
SALIDA         NOT AVBL
SUNLIGHT       CLEAR     43  28  56 CALM      30.40S
WILKERSON PASS NOT AVBL
$$

COZ069>075-260600-
...SAN LUIS VALLEY/SANGRE DE CRISTO MOUNTAINS...

CITY           SKY/WX    TMP DP  RH WIND       PRES   REMARKS
ALAMOSA        PTCLDY    44  23  43 W6        30.25S
LA VETA PASS   CLEAR     46  23  39 S15G26    30.36R
SAGUACHE       NOT AVBL
$$

COZ035-036-038>040-260600-
...NORTHERN COLORADO FRONT RANGE...

CITY           SKY/WX    TMP DP  RH WIND       PRES   REMARKS
DENVER INTL AP CLEAR     54  27  35 SW15      29.99F
DMNS CITY PARK   N/A     55  26  33 S7        29.99F
AURORA         CLEAR     55  24  30 SW8       30.02F
FRONT RANGE AP NOT AVBL
ERIE MUNI ARPT CLEAR     46  29  49 S3        29.99F
BOULDER MUN AP CLEAR     55  27  33 W5        29.99F
CENTENNIAL     CLEAR     54  23  30 SE5       30.03F
BROOMFIELD     NOT AVBL
FORT COLLINS   CLEAR     52  28  40 NW3       29.99F
LONGMONT       CLEAR     53  27  37 W6        30.00F
$$

COZ041-046-047-076>085-087-088-260600-
...PIKES PEAK/PALMER DIVIDE AND SOUTHERN FOOTHILLS...

CITY           SKY/WX    TMP DP  RH WIND       PRES   REMARKS
COLO. SPRINGS  CLEAR     57  24  28 CALM      30.08F
A. F. ACADEMY  CLEAR     46  25  44 N14       30.10F
ELLICOTT       NOT AVBL
FALCON         CLEAR     50  24  36 W7        30.12F
FORT CARSON    PTCLDY    52  26  36 NW7       30.05F
LIMON          CLEAR     40  31  70 N7        30.01F
MONUMENT HILL  CLEAR     46  23  39 SW10      30.11F
TRINIDAD       CLEAR     56  26  31 W16       30.07F
$$

COZ042>045-048>051-090-091-260600-
...NORTHEAST COLORADO...

CITY           SKY/WX    TMP DP  RH WIND       PRES   REMARKS
GREELEY ARPT   CLEAR     45  27  49 NW3       29.98S
AKRON          CLEAR     57  34  41 SE8       29.97F
BURLINGTON     CLEAR     49  36  61 W6        29.94F
WRAY           CLEAR     49  37  61 CALM      29.94F
STERLING       CLEAR     48  36  61 NW5       29.94F
HOLYOKE        CLEAR     52  45  76 E5        29.94F
FORT MORGAN    CLEAR     51  32  47 NE5       29.96F
$$

COZ086-089-092>099-260600-
...SOUTHEAST COLORADO...

CITY           SKY/WX    TMP DP  RH WIND       PRES   REMARKS
PUEBLO         CLEAR     51  31  46 CALM      29.98F
LA JUNTA       CLEAR     56  36  47 W15       29.94S
LAMAR          CLEAR     55  35  47 NE3       29.89F
SPRINGFIELD      N/A     62  40  44 S14       29.98F
$$



USA.gov is the U.S. government's official web portal to all federal, state and local government web resources and services.